metlocid,date_time,avg_uv,stddev_uv,min_uv,max_uv,n_uv,n_comments
HOEM,12/1/15,15.71960781,8.879144535,0,39.17,6400,0
HOEM,1/1/16,12.7019422,7.877079585,1.05,37.51,8928,0
HOEM,2/1/16,7.774279216,6.418364005,0,27.16,8352,0
HOEM,3/1/16,2.921181672,3.638766467,0,17.26,8928,0
HOEM,4/1/16,0.314181712,0.700619128,-0.11,3.46,8640,0
HOEM,5/1/16,-0.002782258,0.012593945,-0.11,0.11,8928,0
HOEM,6/1/16,-0.003769676,0.011604279,-0.11,0,8640,0
HOEM,7/1/16,-0.035283378,0.038314849,-0.11,0,8928,0
HOEM,8/1/16,0.062890904,0.233177524,-0.11,1.57,8928,0
HOEM,9/1/16,1.494076389,2.250547832,-0.11,9.11,8640,0
HOEM,10/1/16,5.952856172,5.841747785,0,23.76,8928,0
HOEM,11/1/16,12.59346643,8.970740938,1.26,40.47,8640,0
HOEM,12/1/16,15.67561379,8.821372652,1.88,45.05,8928,0
HOEM,1/1/17,13.11907441,8.423517983,1.25,35.93,7714,0
HOEM,2/1/17,7.807872029,6.570417419,0,28.64,2688,0
HOEM,3/1/17,2.674855512,3.331885528,0,15.59,2976,0
HOEM,4/1/17,0.346638889,0.793675608,0,4.51,2880,0
HOEM,5/1/17,0,0,0,0,2976,0
HOEM,6/1/17,-0.001173611,0.005929808,-0.11,0,2880,0
HOEM,7/1/17,-2.02E-05,0.000448636,-0.11,0,2976,0
HOEM,8/1/17,0.079600134,0.275514018,-0.11,2.04,2976,0
HOEM,9/1/17,1.543284722,2.27012772,-0.11,9.74,2880,0
HOEM,10/1/17,5.867620965,5.974938415,0,25.53,2976,0
HOEM,11/1/17,12.69940445,8.368672427,1.26,34.7,3056,0
HOEM,12/1/17,15.4457538,8.529103106,1.36,39.6,8928,0
HOEM,1/1/18,13.62737343,8.759277017,1.36,40.73,8928,0
HOEM,2/1/18,8.157602933,6.766776723,0,30.53,8064,0
HOEM,3/1/18,2.903778002,3.530996039,-0.11,15.8,8928,0
HOEM,4/1/18,0.345733795,0.787343505,-0.11,4.71,8640,0
HOEM,5/1/18,-2.24E-06,0.000149663,-0.05,0,8928,0
HOEM,6/1/18,0,0,0,0,8640,0
HOEM,7/1/18,-0.000181452,0.001960345,-0.11,0,8928,0
HOEM,8/1/18,0.063715277,0.225968326,-0.11,1.78,8928,0
HOEM,9/1/18,1.298968747,2.002972073,0,11,8640,0
HOEM,10/1/18,5.23475134,5.226688347,-0.11,24.05,8928,0
HOEM,11/1/18,11.21247801,7.660156231,0.58,31.15,8640,0
HOEM,12/1/18,14.94071564,8.825682054,0.94,42.4,8915,0
HOEM,1/1/19,13.15508064,8.247320067,1.46,37.82,8928,0
HOEM,2/1/19,7.495349698,6.4160149,0,29.88,8064,0
HOEM,3/1/19,2.97406362,3.695863251,-0.11,17.15,8928,0
HOEM,4/1/19,0.346777777,0.761371629,-0.11,4.09,8640,0
HOEM,5/1/19,-8.18E-05,0.000912941,-0.11,0,8928,0
HOEM,6/1/19,-4.40E-05,0.00067903,-0.11,0,8640,0
HOEM,7/1/19,-0.005712366,0.020508461,-0.11,0,8928,0
HOEM,8/1/19,0.058737679,0.206089026,-0.11,1.57,8928,0
HOEM,9/1/19,1.276106482,1.884728928,0,7.85,8640,0
HOEM,10/1/19,5.367243497,5.23626461,0,21.02,8928,0
HOEM,11/1/19,10.96322106,7.514337356,0.84,34.69,8640,0
HOEM,12/1/19,14.26471677,8.50609269,1.359,42.42,8919,0
HOEM,1/1/20,13.05546091,8.069969322,1.672,36.57,8928,0
HOEM,2/1/20,7.325718632,6.270439911,0,26.13,8352,0
HOEM,3/1/20,2.739247872,3.59032829,0,17.69,8928,0
HOEM,4/1/20,0.308228009,0.70442058,-0.052,3.769,8640,0
HOEM,5/1/20,-0.000104503,0.001344931,-0.105,0,8928,0
HOEM,6/1/20,-0.001482407,0.008290446,-0.105,0,8640,0
HOEM,7/1/20,-0.002376344,0.012638512,-0.105,0,8928,0
HOEM,8/1/20,0.057115927,0.201684154,-0.105,1.572,8928,0
HOEM,9/1/20,1.611329167,2.434623019,-0.105,10.37,8640,0
HOEM,10/1/20,6.326593636,6.07878737,0,23.21,8928,0
HOEM,11/1/20,13.04487153,8.428158178,0.732,35.13,8640,0
HOEM,12/1/20,16.57720688,8.855219307,2.195,40.11,8928,0
HOEM,1/1/21,12.30382392,7.763280049,1.359,37.39,8928,0
HOEM,2/1/21,6.749097838,6.07175094,0,27.79,8064,0
HOEM,3/1/21,2.011400202,2.890156001,-0.105,16.74,8928,0
HOEM,4/1/21,0.348170717,0.783051822,-0.052,4.291,8640,0
HOEM,5/1/21,-0.000323589,0.002023004,-0.105,0,8928,0
HOEM,6/1/21,-1.79E-05,0.000298978,-0.052,0,8640,0
HOEM,7/1/21,-0.001142697,0.00809791,-0.105,0,8928,0
HOEM,8/1/21,0.071385417,0.246356699,-0.105,1.677,8928,0
HOEM,9/1/21,1.425372566,2.223893152,-0.052,9.95,8640,0
HOEM,10/1/21,5.791504256,5.542159389,0,21.97,8928,0
HOEM,11/1/21,11.32138426,7.343892275,1.255,36.16,8640,0
HOEM,12/1/21,15.90358026,8.800381113,5.017,30.93,436,0